Starlink 5324

operational
NORAD ID: 55677 Int'l Des: 2023-021 Owner: SPXS Country: US Constellation: starlink
LEOCIRCULAR

About Starlink 5324

Description loading...

Live Position

Loading 3D Globe...

Upcoming Passes

Altitude History

Altitude vs Time

uPlot chart will show altitude changes over time

Two-Line Element Set

1 55677U 23021BB 26061.57933308 -.00000071 00000-0 18244-5 0 9994
2 55677 70.0010 162.3424 0003381 267.9030 92.1742 14.98327766168715
Epoch: Mar 2, 2026 • Age: 34 hours

Current Status

Altitude 595.3 km
Velocity 7.56 km/s
Sub-Earth Point -70.10°S, 114.66°E
Launch Date Feb 17, 2023
Age 3 years
Type internet

Technical Details

Classification Payload
Mass 305.00 kg
Dry Mass 290.00 kg
Total Mass 305.00 kg
Length 0.20 m
Diameter 2.80 m
Span 9.00 m
Shape Box + pan
Manufacturer SPXS
Bus Type Starlink
Phase Status In Orbit
Owner/State SPXS/US

Large Constellations

Loading constellations...